TimeEDT,TemperatureF,Dew PointF,Humidity,Sea Level PressureIn,VisibilityMPH,Wind Direction,Wind SpeedMPH,Gust SpeedMPH,PrecipitationIn,Events,Conditions,WindDirDegrees,DateUTC
12:02 AM,73.4,69.8,88,29.93,9.0,Calm,Calm,-,N/A,,Mostly Cloudy,0,2013-08-09 04:02:00
12:43 AM,73.4,69.8,88,29.93,9.0,Calm,Calm,-,N/A,,Scattered Clouds,0,2013-08-09 04:43:00
12:51 AM,73.0,69.1,87,29.91,9.0,SSW,3.5,-,N/A,,Mostly Cloudy,210,2013-08-09 04:51:00
1:09 AM,73.4,69.8,88,29.92,8.0,Calm,Calm,-,N/A,,Overcast,0,2013-08-09 05:09:00
1:18 AM,73.4,69.8,88,29.92,8.0,Calm,Calm,-,N/A,,Overcast,0,2013-08-09 05:18:00
1:37 AM,73.4,69.8,88,29.91,9.0,Calm,Calm,-,N/A,,Overcast,0,2013-08-09 05:37:00
1:51 AM,73.0,69.1,87,29.89,9.0,Calm,Calm,-,N/A,,Mostly Cloudy,0,2013-08-09 05:51:00
2:09 AM,73.4,69.8,88,29.90,9.0,Calm,Calm,-,N/A,,Partly Cloudy,0,2013-08-09 06:09:00
2:23 AM,71.6,69.8,94,29.90,9.0,SW,3.5,-,N/A,,Mostly Cloudy,220,2013-08-09 06:23:00
2:51 AM,72.0,69.1,91,29.89,9.0,SSW,3.5,-,N/A,,Overcast,200,2013-08-09 06:51:00
3:10 AM,71.6,69.8,94,29.90,9.0,SSW,3.5,-,N/A,,Overcast,210,2013-08-09 07:10:00
3:29 AM,71.6,69.8,94,29.90,10.0,SW,3.5,-,N/A,,Overcast,220,2013-08-09 07:29:00
3:51 AM,72.0,69.1,91,29.89,10.0,SW,3.5,-,N/A,,Overcast,230,2013-08-09 07:51:00
4:00 AM,71.6,69.8,94,29.90,10.0,SW,4.6,-,N/A,,Overcast,220,2013-08-09 08:00:00
4:41 AM,71.6,69.8,94,29.90,3.0,SW,3.5,-,0.04,Rain,Light Rain,220,2013-08-09 08:41:00
4:49 AM,71.6,68.0,88,29.90,8.0,NW,5.8,-,0.04,Rain,Light Rain,310,2013-08-09 08:49:00
4:51 AM,71.1,66.9,87,29.88,8.0,Variable,3.5,-,0.04,Rain,Light Rain,0,2013-08-09 08:51:00
5:29 AM,69.8,64.4,83,29.90,10.0,North,9.2,-,0.00,,Overcast,10,2013-08-09 09:29:00
5:51 AM,68.0,63.0,84,29.90,10.0,North,8.1,-,0.00,,Overcast,10,2013-08-09 09:51:00
6:51 AM,66.9,63.0,87,29.91,4.0,NNE,5.8,-,N/A,,Overcast,30,2013-08-09 10:51:00
7:51 AM,66.9,64.0,90,29.91,4.0,NE,4.6,-,0.00,Rain,Light Rain,50,2013-08-09 11:51:00
8:48 AM,66.2,64.4,94,29.92,7.0,NE,4.6,-,0.01,,Overcast,50,2013-08-09 12:48:00
8:51 AM,66.9,64.0,90,29.91,8.0,ENE,4.6,-,0.01,,Overcast,60,2013-08-09 12:51:00
9:51 AM,68.0,64.0,87,29.92,9.0,NE,3.5,-,0.00,,Overcast,40,2013-08-09 13:51:00
10:51 AM,66.9,63.0,87,29.92,10.0,NNE,5.8,-,N/A,,Overcast,30,2013-08-09 14:51:00
11:51 AM,70.0,63.0,78,29.93,10.0,NNW,3.5,-,N/A,,Overcast,340,2013-08-09 15:51:00
12:51 PM,72.0,62.1,71,29.94,10.0,Variable,5.8,-,N/A,,Mostly Cloudy,0,2013-08-09 16:51:00
1:06 PM,71.6,60.8,69,29.95,10.0,Variable,6.9,-,N/A,,Partly Cloudy,0,2013-08-09 17:06:00
1:51 PM,73.0,61.0,66,29.95,10.0,West,5.8,-,N/A,,Clear,280,2013-08-09 17:51:00
2:51 PM,72.0,62.1,71,29.94,10.0,West,8.1,-,N/A,,Clear,280,2013-08-09 18:51:00
3:51 PM,73.0,62.1,68,29.95,10.0,West,10.4,-,N/A,,Clear,280,2013-08-09 19:51:00
4:51 PM,73.0,60.1,64,29.95,10.0,West,13.8,-,N/A,,Clear,280,2013-08-09 20:51:00
5:51 PM,73.0,55.0,53,29.95,10.0,Variable,5.8,-,N/A,,Clear,0,2013-08-09 21:51:00
6:51 PM,72.0,51.1,48,29.94,10.0,WSW,6.9,-,N/A,,Clear,240,2013-08-09 22:51:00
7:51 PM,70.0,52.0,53,29.97,10.0,SW,4.6,-,N/A,,Clear,230,2013-08-09 23:51:00
8:51 PM,66.9,54.0,63,29.97,10.0,SW,5.8,-,N/A,,Clear,220,2013-08-10 00:51:00
9:51 PM,64.9,54.0,68,29.99,10.0,SSW,4.6,-,N/A,,Clear,210,2013-08-10 01:51:00
10:51 PM,64.0,54.0,70,29.99,10.0,SSW,5.8,-,N/A,,Clear,200,2013-08-10 02:51:00
11:51 PM,64.9,54.0,68,30.00,10.0,SSW,6.9,-,N/A,,Clear,200,2013-08-10 03:51:00